Tracking 30160 objects as of 13-Feb-2025
HD Live streaming from Space Station
objects crossing your sky now

QIANFAN-49

Track QIANFAN-49 now!
10-day predictions


NORAD ID: 62250
Int'l Code: 2024-232P
Perigee: 860.0 km
Apogee: 885.2 km
Inclination: 89.0 °
Period: 102.3 minutes
Semi major axis: 7243 km
RCS: Unknown
Launch date: December 5, 2024
Source: People's Republic of China (PRC)
Launch site: Taiyaun Space Center, China (TSC)
Your satellite tracking list
Your tracking list is empty




NASA's NSSDC Master Catalog

Two Line Element Set (TLE):
1 62250U 24232P   25044.42946023  .00000544  00000-0  31042-3 0  9999
2 62250  88.9947  72.0831 0017330   7.6296 352.5147 14.08223303 26918
Source of the keplerian elements: AFSPC